Location: Poughquag
(41.6090°N, 73.6820°W)
Time: 10:40:46
(UTC-04:00)

Tiangong 2 - Visible Passes

Search period start: 21 July 2017 00:00
Search period end: 31 July 2017 00:00
Orbit: 392 x 394 km, 42.8° (Epoch: 20 July)

Date Brightness Start Highest point End Pass type
(mag) Time Alt. Az. Time Alt. Az. Time Alt. Az.
21 Jul 1.4 20:56:42 10° W 20:59:54 69° N 21:03:07 10° E visible
21 Jul 1.6 22:33:40 10° W 22:36:21 49° WSW 22:36:21 49° WSW visible
22 Jul 1.0 21:36:49 10° WNW 21:40:02 81° SSW 21:41:53 23° ESE visible
22 Jul 4.1 23:14:09 10° W 23:14:15 11° W 23:14:15 11° W visible
23 Jul 2.1 22:17:02 10° W 22:19:47 33° SW 22:19:47 33° SW visible
24 Jul 1.5 21:20:04 10° W 21:23:12 51° SSW 21:25:20 18° SE visible
25 Jul 3.0 22:00:36 10° W 22:02:58 19° SSW 22:03:16 19° SSW visible
26 Jul 2.4 21:03:22 10° W 21:06:14 30° SSW 21:08:52 11° SE visible
27 Jul 3.8 21:45:45 10° SW 21:45:50 10° SW 21:45:53 10° SW visible
28 Jul 3.4 20:46:59 10° WSW 20:49:08 17° SSW 20:51:18 10° S visible
